コワルスキー彗星

391P/Kowalski (2018)

English version
Home page
Updated on March 6, 2020

---------------------------------------------------------------------

・ プロフィール

符号 391P/2019 U2
検出日 2019年10月22日、10月25日
検出光度 20.3等、21.5等
検出者 K. Hills (Tacanade Observatory, La Palma), Pan-STARRS 1 telescope (Haleakala)

・ 軌道要素

Epoch 2018 Mar. 23.0 TT = JDT 2458200.5                                         
T 2018 Mar. 14.83798 TT                                 Williams                
q   4.1082145            (2000.0)            P               Q                  
n   0.09767159     Peri.  186.15460     +0.64875833     +0.70012975             
a   4.6697167      Node   124.74723     -0.68180776     +0.70881945             
e   0.1202433      Incl.   21.28044     -0.33801007     -0.08598441             
P  10.1                                                                         
From 217 observations 2005 May 10-2019 Nov. 1, mean residual 0".6.              

・ 光度変化

        m1 = -6.5 + 5 logΔ + 35 log r(t + 600)

---------------------------------------------------------------------

軌道要素はM.P.E.C. 2019-V116に掲載されたものです。
光度グラフはComet for Windowsで作成したものです。

---------------------------------------------------------------------

Copyright(C) Seiichi Yoshida (comet@aerith.net). All rights reserved.